Location: Sabalos
(43.2860°N, 0.1414°E)
Time: 08:13:11
(UTC+00:00)

Cosmos 44 - Pass Details

Date: 05 July 2020
Orbit: 586 x 776 km, 65.1° (Epoch: 14 August)

Event Time Altitude Azimuth Distance (km) Brightness Sun altitude
Exits shadow 23:43:42 63° 272° (W) 662 3.1 -23.9°
Maximum altitude 23:44:03 67° 305° (NW) 645 3.2 -23.9°
Drops below altitude 10° 23:48:27 10° 29° (NNE) 1,965 6.4 -24.0°
Sets 23:50:46 0° 32° (NNE) 2,897 7.3 -24.0°
